Time,TemperatureF,DewpointF,PressureIn,WindDirection,WindDirectionDegrees,WindSpeedMPH,WindSpeedGustMPH,Humidity,HourlyPrecipIn,Conditions,Clouds,dailyrainin,SoftwareType,DateUTC
2013-02-03 00:00:00,12.0,11.0,30.12,South,180,8.0,8.0,89,0.00,,,0.00,Rainwise IP-100,2013-02-03 05:00:00,
2013-02-03 00:05:00,13.0,11.0,30.11,South,180,7.0,9.0,88,0.00,,,0.00,Rainwise IP-100,2013-02-03 05:05:00,
2013-02-03 00:10:00,13.0,11.0,30.11,SSW,202,7.0,10.0,87,0.00,,,0.00,Rainwise IP-100,2013-02-03 05:10:00,
2013-02-03 00:15:00,13.0,11.0,30.11,SSW,202,6.0,10.0,88,0.00,,,0.00,Rainwise IP-100,2013-02-03 05:15:00,
2013-02-03 00:20:00,13.0,11.0,30.11,South,180,9.0,9.0,87,0.00,,,0.00,Rainwise IP-100,2013-02-03 05:20:00,
2013-02-03 00:21:00,13.0,11.0,30.11,SSW,202,7.0,9.0,87,0.00,,,0.00,Rainwise IP-100,2013-02-03 05:21:00,
2013-02-03 00:27:00,12.0,11.0,30.11,SSE,157,6.0,9.0,88,0.00,,,0.00,Rainwise IP-100,2013-02-03 05:27:00,
2013-02-03 00:32:00,12.0,11.0,30.11,SSE,157,8.0,9.0,90,0.00,,,0.00,Rainwise IP-100,2013-02-03 05:32:00,
2013-02-03 00:37:00,12.0,11.0,30.11,SSE,157,0.0,9.0,89,0.00,,,0.00,Rainwise IP-100,2013-02-03 05:37:00,
2013-02-03 00:42:00,11.0,8.0,30.11,SSE,157,0.0,3.0,91,0.00,,,0.00,Rainwise IP-100,2013-02-03 05:42:00,
2013-02-03 00:47:00,10.0,11.0,30.12,WSW,247,0.0,0.0,93,0.00,,,0.00,Rainwise IP-100,2013-02-03 05:47:00,
2013-02-03 00:51:00,10.0,11.0,30.12,WSW,247,1.0,2.0,93,0.00,,,0.00,Rainwise IP-100,2013-02-03 05:51:00,
2013-02-03 00:56:00,10.0,11.0,30.11,WSW,247,1.0,5.0,93,0.00,,,0.00,Rainwise IP-100,2013-02-03 05:56:00,
2013-02-03 01:01:00,10.0,11.0,30.11,SSW,202,5.0,6.0,93,0.00,,,0.00,Rainwise IP-100,2013-02-03 06:01:00,
2013-02-03 01:03:00,10.0,11.0,30.11,South,180,5.0,6.0,93,0.00,,,0.00,Rainwise IP-100,2013-02-03 06:03:00,
2013-02-03 01:09:00,10.0,8.0,30.11,SSE,157,4.0,6.0,92,0.00,,,0.00,Rainwise IP-100,2013-02-03 06:09:00,
2013-02-03 01:14:00,10.0,8.0,30.11,SSE,157,5.0,5.0,92,0.00,,,0.00,Rainwise IP-100,2013-02-03 06:14:00,
2013-02-03 01:19:00,9.0,8.0,30.11,SW,225,0.0,5.0,92,0.00,,,0.00,Rainwise IP-100,2013-02-03 06:19:00,
2013-02-03 01:24:00,8.0,8.0,30.11,SW,225,0.0,0.0,92,0.00,,,0.00,Rainwise IP-100,2013-02-03 06:24:00,
2013-02-03 01:29:00,8.0,8.0,30.11,SW,225,3.0,3.0,92,0.00,,,0.00,Rainwise IP-100,2013-02-03 06:29:00,
2013-02-03 01:34:00,8.0,8.0,30.11,SW,225,0.0,3.0,92,0.00,,,0.00,Rainwise IP-100,2013-02-03 06:34:00,
2013-02-03 01:39:00,8.0,8.0,30.11,SW,225,0.0,1.0,92,0.00,,,0.00,Rainwise IP-100,2013-02-03 06:39:00,
2013-02-03 01:44:00,7.0,8.0,30.11,SW,225,0.0,1.0,92,0.00,,,0.00,Rainwise IP-100,2013-02-03 06:44:00,
2013-02-03 01:49:00,7.0,8.0,30.12,SW,225,0.0,0.0,92,0.00,,,0.00,Rainwise IP-100,2013-02-03 06:49:00,
2013-02-03 01:54:00,7.0,8.0,30.12,SW,225,0.0,0.0,92,0.00,,,0.00,Rainwise IP-100,2013-02-03 06:54:00,
2013-02-03 01:59:00,7.0,8.0,30.12,SW,225,0.0,1.0,92,0.00,,,0.00,Rainwise IP-100,2013-02-03 06:59:00,
2013-02-03 02:04:00,7.0,8.0,30.12,SW,225,0.0,2.0,92,0.00,,,0.00,Rainwise IP-100,2013-02-03 07:04:00,
2013-02-03 02:09:00,7.0,8.0,30.12,SW,225,0.0,0.0,92,0.00,,,0.00,Rainwise IP-100,2013-02-03 07:09:00,
2013-02-03 02:14:00,6.0,8.0,30.12,SW,225,0.0,0.0,92,0.00,,,0.00,Rainwise IP-100,2013-02-03 07:14:00,
2013-02-03 02:19:00,7.0,8.0,30.12,SSW,202,3.0,3.0,92,0.00,,,0.00,Rainwise IP-100,2013-02-03 07:19:00,
2013-02-03 02:24:00,7.0,8.0,30.12,South,180,3.0,4.0,92,0.00,,,0.00,Rainwise IP-100,2013-02-03 07:24:00,
2013-02-03 02:29:00,7.0,8.0,30.11,South,180,2.0,4.0,92,0.00,,,0.00,Rainwise IP-100,2013-02-03 07:29:00,
2013-02-03 02:34:00,7.0,8.0,30.11,South,180,4.0,5.0,92,0.00,,,0.00,Rainwise IP-100,2013-02-03 07:34:00,
2013-02-03 02:39:00,7.0,8.0,30.11,SSE,157,4.0,5.0,92,0.00,,,0.00,Rainwise IP-100,2013-02-03 07:39:00,
2013-02-03 02:44:00,7.0,8.0,30.11,SSE,157,5.0,5.0,92,0.00,,,0.00,Rainwise IP-100,2013-02-03 07:44:00,
2013-02-03 02:49:00,6.0,8.0,30.11,SSE,157,5.0,6.0,92,0.00,,,0.00,Rainwise IP-100,2013-02-03 07:49:00,
2013-02-03 02:54:00,6.0,8.0,30.11,SSE,157,6.0,6.0,92,0.00,,,0.00,Rainwise IP-100,2013-02-03 07:54:00,
2013-02-03 02:59:00,6.0,8.0,30.11,South,180,4.0,6.0,92,0.00,,,0.00,Rainwise IP-100,2013-02-03 07:59:00,
2013-02-03 03:04:00,7.0,8.0,30.11,SSE,157,3.0,6.0,92,0.00,,,0.00,Rainwise IP-100,2013-02-03 08:04:00,
2013-02-03 03:09:00,7.0,8.0,30.11,SW,225,2.0,6.0,92,0.00,,,0.00,Rainwise IP-100,2013-02-03 08:09:00,
2013-02-03 03:14:00,6.0,8.0,30.11,South,180,1.0,3.0,92,0.00,,,0.00,Rainwise IP-100,2013-02-03 08:14:00,
2013-02-03 03:19:00,6.0,8.0,30.11,SSE,157,3.0,4.0,92,0.00,,,0.00,Rainwise IP-100,2013-02-03 08:19:00,
2013-02-03 03:24:00,7.0,8.0,30.11,South,180,3.0,4.0,92,0.00,,,0.00,Rainwise IP-100,2013-02-03 08:24:00,
2013-02-03 03:29:00,7.0,8.0,30.10,South,180,2.0,3.0,92,0.00,,,0.00,Rainwise IP-100,2013-02-03 08:29:00,
2013-02-03 03:34:00,6.0,8.0,30.10,South,180,4.0,5.0,92,0.00,,,0.00,Rainwise IP-100,2013-02-03 08:34:00,
2013-02-03 03:39:00,6.0,8.0,30.10,South,180,4.0,5.0,92,0.00,,,0.00,Rainwise IP-100,2013-02-03 08:39:00,
2013-02-03 03:44:00,5.0,8.0,30.10,South,180,3.0,5.0,92,0.00,,,0.00,Rainwise IP-100,2013-02-03 08:44:00,
2013-02-03 03:49:00,5.0,8.0,30.11,SSE,157,5.0,6.0,92,0.00,,,0.00,Rainwise IP-100,2013-02-03 08:49:00,
2013-02-03 03:54:00,5.0,8.0,30.11,SSE,157,2.0,6.0,92,0.00,,,0.00,Rainwise IP-100,2013-02-03 08:54:00,
2013-02-03 03:59:00,5.0,8.0,30.11,SSE,157,2.0,6.0,92,0.00,,,0.00,Rainwise IP-100,2013-02-03 08:59:00,
2013-02-03 04:04:00,5.0,8.0,30.11,SSW,202,3.0,5.0,92,0.00,,,0.00,Rainwise IP-100,2013-02-03 09:04:00,
2013-02-03 04:09:00,4.0,4.0,30.11,SSW,202,0.0,4.0,92,0.00,,,0.00,Rainwise IP-100,2013-02-03 09:09:00,
2013-02-03 04:14:00,4.0,4.0,30.11,SSW,202,0.0,0.0,92,0.00,,,0.00,Rainwise IP-100,2013-02-03 09:14:00,
2013-02-03 04:19:00,4.0,4.0,30.11,SSW,202,1.0,2.0,92,0.00,,,0.00,Rainwise IP-100,2013-02-03 09:19:00,
2013-02-03 04:24:00,4.0,4.0,30.11,South,180,4.0,4.0,92,0.00,,,0.00,Rainwise IP-100,2013-02-03 09:24:00,
2013-02-03 04:29:00,4.0,4.0,30.10,SSE,157,4.0,4.0,92,0.00,,,0.00,Rainwise IP-100,2013-02-03 09:29:00,
2013-02-03 04:34:00,4.0,4.0,30.10,SW,225,3.0,4.0,92,0.00,,,0.00,Rainwise IP-100,2013-02-03 09:34:00,
2013-02-03 04:39:00,4.0,4.0,30.10,South,180,3.0,4.0,92,0.00,,,0.00,Rainwise IP-100,2013-02-03 09:39:00,
2013-02-03 04:44:00,4.0,4.0,30.10,SSW,202,1.0,4.0,92,0.00,,,0.00,Rainwise IP-100,2013-02-03 09:44:00,
2013-02-03 04:49:00,4.0,4.0,30.10,SW,225,3.0,4.0,92,0.00,,,0.00,Rainwise IP-100,2013-02-03 09:49:00,
2013-02-03 04:54:00,3.0,4.0,30.10,SW,225,5.0,5.0,92,0.00,,,0.00,Rainwise IP-100,2013-02-03 09:54:00,
2013-02-03 04:59:00,3.0,4.0,30.10,SW,225,4.0,5.0,92,0.00,,,0.00,Rainwise IP-100,2013-02-03 09:59:00,
2013-02-03 05:04:00,4.0,4.0,30.10,SW,225,3.0,5.0,92,0.00,,,0.00,Rainwise IP-100,2013-02-03 10:04:00,
2013-02-03 05:09:00,4.0,4.0,30.10,SW,225,2.0,4.0,92,0.00,,,0.00,Rainwise IP-100,2013-02-03 10:09:00,
2013-02-03 05:14:00,5.0,8.0,30.10,SSW,202,1.0,4.0,92,0.00,,,0.00,Rainwise IP-100,2013-02-03 10:14:00,
2013-02-03 05:19:00,4.0,4.0,30.10,South,180,2.0,2.0,92,0.00,,,0.00,Rainwise IP-100,2013-02-03 10:19:00,
2013-02-03 05:24:00,3.0,4.0,30.10,South,180,2.0,4.0,92,0.00,,,0.00,Rainwise IP-100,2013-02-03 10:24:00,
2013-02-03 05:29:00,4.0,4.0,30.09,South,180,5.0,5.0,92,0.00,,,0.00,Rainwise IP-100,2013-02-03 10:29:00,
2013-02-03 05:34:00,4.0,4.0,30.09,South,180,3.0,5.0,92,0.00,,,0.00,Rainwise IP-100,2013-02-03 10:34:00,
2013-02-03 05:39:00,4.0,4.0,30.09,South,180,3.0,5.0,92,0.00,,,0.00,Rainwise IP-100,2013-02-03 10:39:00,
2013-02-03 05:44:00,4.0,4.0,30.09,South,180,2.0,4.0,92,0.00,,,0.00,Rainwise IP-100,2013-02-03 10:44:00,
2013-02-03 05:49:00,4.0,4.0,30.09,South,180,3.0,4.0,92,0.00,,,0.00,Rainwise IP-100,2013-02-03 10:49:00,
2013-02-03 05:54:00,4.0,4.0,30.09,South,180,1.0,3.0,92,0.00,,,0.00,Rainwise IP-100,2013-02-03 10:54:00,
2013-02-03 05:59:00,3.0,4.0,30.09,South,180,0.0,1.0,92,0.00,,,0.00,Rainwise IP-100,2013-02-03 10:59:00,
2013-02-03 06:04:00,3.0,4.0,30.09,South,180,0.0,0.0,92,0.00,,,0.00,Rainwise IP-100,2013-02-03 11:04:00,
2013-02-03 06:09:00,2.0,4.0,30.09,South,180,0.0,0.0,91,0.00,,,0.00,Rainwise IP-100,2013-02-03 11:09:00,
2013-02-03 06:14:00,2.0,4.0,30.09,South,180,0.0,0.0,91,0.00,,,0.00,Rainwise IP-100,2013-02-03 11:14:00,
2013-02-03 06:19:00,2.0,4.0,30.09,South,180,1.0,2.0,91,0.00,,,0.00,Rainwise IP-100,2013-02-03 11:19:00,
2013-02-03 06:24:00,2.0,4.0,30.09,South,180,0.0,2.0,91,0.00,,,0.00,Rainwise IP-100,2013-02-03 11:24:00,
2013-02-03 06:29:00,2.0,4.0,30.09,South,180,0.0,0.0,91,0.00,,,0.00,Rainwise IP-100,2013-02-03 11:29:00,
2013-02-03 06:34:00,2.0,4.0,30.09,South,180,0.0,2.0,91,0.00,,,0.00,Rainwise IP-100,2013-02-03 11:34:00,
2013-02-03 06:39:00,2.0,4.0,30.09,South,180,0.0,1.0,91,0.00,,,0.00,Rainwise IP-100,2013-02-03 11:39:00,
2013-02-03 06:44:00,1.0,4.0,30.09,South,180,0.0,0.0,91,0.00,,,0.00,Rainwise IP-100,2013-02-03 11:44:00,
2013-02-03 06:49:00,1.0,4.0,30.09,South,180,0.0,0.0,91,0.00,,,0.00,Rainwise IP-100,2013-02-03 11:49:00,
2013-02-03 06:54:00,1.0,4.0,30.09,South,180,0.0,0.0,91,0.00,,,0.00,Rainwise IP-100,2013-02-03 11:54:00,
2013-02-03 06:59:00,1.0,4.0,30.09,South,180,0.0,0.0,91,0.00,,,0.00,Rainwise IP-100,2013-02-03 11:59:00,
2013-02-03 07:04:00,1.0,4.0,30.09,South,180,1.0,1.0,91,0.00,,,0.00,Rainwise IP-100,2013-02-03 12:04:00,
2013-02-03 07:09:00,1.0,4.0,30.10,South,180,0.0,1.0,91,0.00,,,0.00,Rainwise IP-100,2013-02-03 12:09:00,
2013-02-03 07:14:00,2.0,4.0,30.10,South,180,0.0,0.0,91,0.00,,,0.00,Rainwise IP-100,2013-02-03 12:14:00,
2013-02-03 07:19:00,2.0,4.0,30.10,South,180,0.0,0.0,91,0.00,,,0.00,Rainwise IP-100,2013-02-03 12:19:00,
2013-02-03 07:24:00,1.0,4.0,30.10,South,180,0.0,0.0,91,0.00,,,0.00,Rainwise IP-100,2013-02-03 12:24:00,
2013-02-03 07:29:00,1.0,4.0,30.10,South,180,0.0,0.0,91,0.00,,,0.00,Rainwise IP-100,2013-02-03 12:29:00,
2013-02-03 07:34:00,1.0,4.0,30.10,South,180,1.0,1.0,91,0.00,,,0.00,Rainwise IP-100,2013-02-03 12:34:00,
2013-02-03 07:39:00,1.0,4.0,30.10,South,180,0.0,1.0,91,0.00,,,0.00,Rainwise IP-100,2013-02-03 12:39:00,
2013-02-03 07:44:00,1.0,4.0,30.10,South,180,0.0,0.0,91,0.00,,,0.00,Rainwise IP-100,2013-02-03 12:44:00,
2013-02-03 07:49:00,1.0,4.0,30.10,South,180,0.0,0.0,91,0.00,,,0.00,Rainwise IP-100,2013-02-03 12:49:00,
2013-02-03 07:54:00,1.0,4.0,30.10,South,180,0.0,0.0,91,0.00,,,0.00,Rainwise IP-100,2013-02-03 12:54:00,
2013-02-03 07:59:00,1.0,4.0,30.10,South,180,0.0,0.0,91,0.00,,,0.00,Rainwise IP-100,2013-02-03 12:59:00,
2013-02-03 08:04:00,2.0,4.0,30.10,South,180,0.0,0.0,91,0.00,,,0.00,Rainwise IP-100,2013-02-03 13:04:00,
2013-02-03 08:09:00,3.0,4.0,30.10,South,180,0.0,0.0,92,0.00,,,0.00,Rainwise IP-100,2013-02-03 13:09:00,
2013-02-03 08:14:00,4.0,4.0,30.10,South,180,0.0,0.0,92,0.00,,,0.00,Rainwise IP-100,2013-02-03 13:14:00,
2013-02-03 08:19:00,5.0,8.0,30.10,South,180,0.0,1.0,92,0.00,,,0.00,Rainwise IP-100,2013-02-03 13:19:00,
2013-02-03 08:24:00,5.0,8.0,30.10,South,180,0.0,0.0,92,0.00,,,0.00,Rainwise IP-100,2013-02-03 13:24:00,
2013-02-03 08:29:00,6.0,8.0,30.10,South,180,0.0,1.0,92,0.00,,,0.00,Rainwise IP-100,2013-02-03 13:29:00,
2013-02-03 08:34:00,6.0,8.0,30.10,South,180,0.0,1.0,92,0.00,,,0.00,Rainwise IP-100,2013-02-03 13:34:00,
2013-02-03 08:39:00,7.0,8.0,30.09,South,180,0.0,0.0,92,0.00,,,0.00,Rainwise IP-100,2013-02-03 13:39:00,
2013-02-03 08:44:00,7.0,8.0,30.09,South,180,0.0,0.0,92,0.00,,,0.00,Rainwise IP-100,2013-02-03 13:44:00,
2013-02-03 08:49:00,6.0,8.0,30.09,South,180,0.0,0.0,92,0.00,,,0.00,Rainwise IP-100,2013-02-03 13:49:00,
2013-02-03 08:54:00,7.0,8.0,30.09,South,180,0.0,0.0,92,0.00,,,0.00,Rainwise IP-100,2013-02-03 13:54:00,
2013-02-03 08:59:00,8.0,8.0,30.09,South,180,0.0,0.0,92,0.00,,,0.00,Rainwise IP-100,2013-02-03 13:59:00,
2013-02-03 09:04:00,8.0,8.0,30.09,South,180,0.0,1.0,92,0.00,,,0.00,Rainwise IP-100,2013-02-03 14:04:00,
2013-02-03 09:09:00,9.0,8.0,30.09,South,180,0.0,0.0,92,0.00,,,0.00,Rainwise IP-100,2013-02-03 14:09:00,
2013-02-03 09:14:00,9.0,8.0,30.09,South,180,0.0,1.0,92,0.00,,,0.00,Rainwise IP-100,2013-02-03 14:14:00,
2013-02-03 09:19:00,10.0,11.0,30.09,South,180,0.0,0.0,93,0.00,,,0.00,Rainwise IP-100,2013-02-03 14:19:00,
2013-02-03 09:24:00,10.0,11.0,30.09,South,180,0.0,1.0,93,0.00,,,0.00,Rainwise IP-100,2013-02-03 14:24:00,
2013-02-03 09:29:00,10.0,8.0,30.08,South,180,0.0,2.0,91,0.00,,,0.00,Rainwise IP-100,2013-02-03 14:29:00,
2013-02-03 09:34:00,10.0,11.0,30.08,South,180,0.0,1.0,93,0.00,,,0.00,Rainwise IP-100,2013-02-03 14:34:00,
2013-02-03 09:39:00,10.0,8.0,30.09,SE,135,2.0,2.0,88,0.00,,,0.00,Rainwise IP-100,2013-02-03 14:39:00,
2013-02-03 09:44:00,11.0,8.0,30.09,SE,135,0.0,3.0,91,0.00,,,0.00,Rainwise IP-100,2013-02-03 14:44:00,
2013-02-03 09:49:00,11.0,8.0,30.07,SE,135,1.0,2.0,90,0.00,,,0.00,Rainwise IP-100,2013-02-03 14:49:00,
2013-02-03 09:54:00,12.0,11.0,30.07,SE,135,1.0,2.0,87,0.00,,,0.00,Rainwise IP-100,2013-02-03 14:54:00,
2013-02-03 09:59:00,11.0,8.0,30.07,SE,135,1.0,2.0,85,0.00,,,0.00,Rainwise IP-100,2013-02-03 14:59:00,
2013-02-03 10:04:00,12.0,11.0,30.07,SE,135,1.0,3.0,86,0.00,,,0.00,Rainwise IP-100,2013-02-03 15:04:00,
2013-02-03 10:09:00,12.0,11.0,30.07,SE,135,2.0,3.0,87,0.00,,,0.00,Rainwise IP-100,2013-02-03 15:09:00,
2013-02-03 10:14:00,12.0,11.0,30.07,ESE,112,3.0,4.0,86,0.00,,,0.00,Rainwise IP-100,2013-02-03 15:14:00,
2013-02-03 10:19:00,13.0,11.0,30.07,ESE,112,3.0,4.0,85,0.00,,,0.00,Rainwise IP-100,2013-02-03 15:19:00,
2013-02-03 10:24:00,13.0,11.0,30.07,ESE,112,3.0,4.0,84,0.00,,,0.00,Rainwise IP-100,2013-02-03 15:24:00,
2013-02-03 10:29:00,13.0,11.0,30.06,ESE,112,2.0,4.0,83,0.00,,,0.00,Rainwise IP-100,2013-02-03 15:29:00,
2013-02-03 10:34:00,14.0,11.0,30.06,ESE,112,3.0,4.0,84,0.00,,,0.00,Rainwise IP-100,2013-02-03 15:34:00,
2013-02-03 10:39:00,14.0,11.0,30.05,ESE,112,3.0,5.0,82,0.00,,,0.00,Rainwise IP-100,2013-02-03 15:39:00,
2013-02-03 10:44:00,14.0,11.0,30.05,ESE,112,1.0,5.0,83,0.00,,,0.00,Rainwise IP-100,2013-02-03 15:44:00,
2013-02-03 10:49:00,15.0,11.0,30.05,ESE,112,2.0,4.0,82,0.00,,,0.00,Rainwise IP-100,2013-02-03 15:49:00,
2013-02-03 10:54:00,15.0,11.0,30.05,ESE,112,4.0,5.0,81,0.00,,,0.00,Rainwise IP-100,2013-02-03 15:54:00,
2013-02-03 10:59:00,15.0,11.0,30.03,ESE,112,3.0,6.0,79,0.00,,,0.00,Rainwise IP-100,2013-02-03 15:59:00,
2013-02-03 11:04:00,16.0,11.0,30.03,East,90,4.0,4.0,80,0.00,,,0.00,Rainwise IP-100,2013-02-03 16:04:00,
2013-02-03 11:09:00,17.0,14.0,30.03,East,90,2.0,5.0,81,0.00,,,0.00,Rainwise IP-100,2013-02-03 16:09:00,
2013-02-03 11:14:00,17.0,14.0,30.03,East,90,3.0,4.0,78,0.00,,,0.00,Rainwise IP-100,2013-02-03 16:14:00,
2013-02-03 11:19:00,17.0,14.0,30.02,East,90,2.0,5.0,77,0.00,,,0.00,Rainwise IP-100,2013-02-03 16:19:00,
2013-02-03 11:24:00,18.0,14.0,30.02,East,90,0.0,4.0,78,0.00,,,0.00,Rainwise IP-100,2013-02-03 16:24:00,
2013-02-03 11:29:00,18.0,14.0,30.01,ESE,112,3.0,5.0,76,0.00,,,0.00,Rainwise IP-100,2013-02-03 16:29:00,
2013-02-03 11:34:00,18.0,14.0,30.01,East,90,4.0,4.0,77,0.00,,,0.00,Rainwise IP-100,2013-02-03 16:34:00,
2013-02-03 11:39:00,18.0,14.0,30.00,East,90,3.0,6.0,77,0.00,,,0.00,Rainwise IP-100,2013-02-03 16:39:00,
2013-02-03 11:44:00,18.0,14.0,30.00,East,90,2.0,4.0,76,0.00,,,0.00,Rainwise IP-100,2013-02-03 16:44:00,
2013-02-03 11:49:00,19.0,16.0,29.99,North,360,1.0,5.0,84,0.00,,,0.00,Rainwise IP-100,2013-02-03 16:49:00,
2013-02-03 11:54:00,19.0,14.0,29.99,North,360,4.0,4.0,77,0.00,,,0.00,Rainwise IP-100,2013-02-03 16:54:00,
2013-02-03 11:59:00,20.0,14.0,29.98,WSW,247,0.0,4.0,77,0.00,,,0.00,Rainwise IP-100,2013-02-03 16:59:00,
2013-02-03 12:04:00,20.0,14.0,29.98,East,90,2.0,6.0,75,0.00,,,0.00,Rainwise IP-100,2013-02-03 17:04:00,
2013-02-03 12:09:00,20.0,11.0,29.98,South,180,8.0,9.0,65,0.00,,,0.00,Rainwise IP-100,2013-02-03 17:09:00,
2013-02-03 12:14:00,20.0,11.0,29.98,SSW,202,5.0,10.0,66,0.00,,,0.00,Rainwise IP-100,2013-02-03 17:14:00,
2013-02-03 12:19:00,20.0,11.0,29.96,SSE,157,5.0,8.0,63,0.00,,,0.00,Rainwise IP-100,2013-02-03 17:19:00,
2013-02-03 12:24:00,20.0,11.0,29.96,South,180,5.0,10.0,63,0.00,,,0.00,Rainwise IP-100,2013-02-03 17:24:00,
2013-02-03 12:29:00,20.0,11.0,29.96,SW,225,7.0,11.0,64,0.00,,,0.00,Rainwise IP-100,2013-02-03 17:29:00,
2013-02-03 12:34:00,20.0,11.0,29.96,South,180,7.0,9.0,63,0.00,,,0.00,Rainwise IP-100,2013-02-03 17:34:00,
2013-02-03 12:39:00,20.0,11.0,29.96,SSW,202,6.0,10.0,63,0.00,,,0.00,Rainwise IP-100,2013-02-03 17:39:00,
2013-02-03 12:44:00,20.0,11.0,29.96,South,180,6.0,9.0,62,0.00,,,0.00,Rainwise IP-100,2013-02-03 17:44:00,
2013-02-03 12:49:00,21.0,11.0,29.96,SW,225,5.0,9.0,62,0.00,,,0.00,Rainwise IP-100,2013-02-03 17:49:00,
2013-02-03 12:54:00,21.0,11.0,29.96,WSW,247,3.0,7.0,62,0.00,,,0.00,Rainwise IP-100,2013-02-03 17:54:00,
2013-02-03 12:59:00,20.0,11.0,29.94,South,180,7.0,10.0,61,0.00,,,0.00,Rainwise IP-100,2013-02-03 17:59:00,
2013-02-03 13:04:00,22.0,11.0,29.94,ESE,112,0.0,10.0,60,0.00,,,0.00,Rainwise IP-100,2013-02-03 18:04:00,
2013-02-03 13:09:00,23.0,11.0,29.93,West,270,1.0,4.0,61,0.00,,,0.00,Rainwise IP-100,2013-02-03 18:09:00,
2013-02-03 13:14:00,23.0,11.0,29.93,SW,225,2.0,7.0,61,0.00,,,0.00,Rainwise IP-100,2013-02-03 18:14:00,
2013-02-03 13:19:00,21.0,8.0,29.92,South,180,6.0,9.0,57,0.00,,,0.00,Rainwise IP-100,2013-02-03 18:19:00,
2013-02-03 13:24:00,22.0,11.0,29.92,SSW,202,6.0,9.0,57,0.00,,,0.00,Rainwise IP-100,2013-02-03 18:24:00,
2013-02-03 13:29:00,22.0,11.0,29.93,WNW,292,4.0,6.0,59,0.00,,,0.00,Rainwise IP-100,2013-02-03 18:29:00,
2013-02-03 13:34:00,23.0,14.0,29.93,SE,135,0.0,5.0,63,0.00,,,0.00,Rainwise IP-100,2013-02-03 18:34:00,
2013-02-03 13:39:00,22.0,8.0,29.92,WSW,247,6.0,6.0,54,0.00,,,0.00,Rainwise IP-100,2013-02-03 18:39:00,
2013-02-03 13:44:00,23.0,11.0,29.92,West,270,1.0,7.0,61,0.00,,,0.00,Rainwise IP-100,2013-02-03 18:44:00,
2013-02-03 13:49:00,23.0,11.0,29.91,West,270,5.0,5.0,56,0.00,,,0.00,Rainwise IP-100,2013-02-03 18:49:00,
2013-02-03 13:54:00,23.0,8.0,29.91,South,180,6.0,9.0,51,0.00,,,0.00,Rainwise IP-100,2013-02-03 18:54:00,
2013-02-03 13:59:00,23.0,8.0,29.91,SSE,157,3.0,7.0,51,0.00,,,0.00,Rainwise IP-100,2013-02-03 18:59:00,
2013-02-03 14:04:00,25.0,11.0,29.91,West,270,0.0,5.0,52,0.00,,,0.00,Rainwise IP-100,2013-02-03 19:04:00,
2013-02-03 14:09:00,26.0,11.0,29.89,West,270,1.0,2.0,51,0.00,,,0.00,Rainwise IP-100,2013-02-03 19:09:00,
2013-02-03 14:14:00,26.0,11.0,29.89,NNW,337,2.0,4.0,52,0.00,,,0.00,Rainwise IP-100,2013-02-03 19:14:00,
2013-02-03 14:19:00,26.0,11.0,29.89,SSE,157,1.0,4.0,50,0.00,,,0.00,Rainwise IP-100,2013-02-03 19:19:00,
2013-02-03 14:24:00,22.0,8.0,29.89,SSE,157,6.0,14.0,54,0.00,,,0.00,Rainwise IP-100,2013-02-03 19:24:00,
2013-02-03 14:29:00,22.0,11.0,29.91,SW,225,7.0,13.0,55,0.00,,,0.00,Rainwise IP-100,2013-02-03 19:29:00,
2013-02-03 14:34:00,22.0,11.0,29.91,SSE,157,7.0,9.0,55,0.00,,,0.00,Rainwise IP-100,2013-02-03 19:34:00,
2013-02-03 14:39:00,22.0,11.0,29.90,South,180,8.0,9.0,57,0.00,,,0.00,Rainwise IP-100,2013-02-03 19:39:00,
2013-02-03 14:44:00,22.0,11.0,29.90,SSW,202,5.0,9.0,59,0.00,,,0.00,Rainwise IP-100,2013-02-03 19:44:00,
2013-02-03 14:49:00,22.0,11.0,29.90,SW,225,3.0,7.0,58,0.00,,,0.00,Rainwise IP-100,2013-02-03 19:49:00,
2013-02-03 14:54:00,22.0,11.0,29.90,SSE,157,6.0,8.0,57,0.00,,,0.00,Rainwise IP-100,2013-02-03 19:54:00,
2013-02-03 14:59:00,22.0,11.0,29.90,South,180,6.0,8.0,55,0.00,,,0.00,Rainwise IP-100,2013-02-03 19:59:00,
2013-02-03 15:04:00,22.0,8.0,29.90,East,90,4.0,9.0,53,0.00,,,0.00,Rainwise IP-100,2013-02-03 20:04:00,
2013-02-03 15:09:00,22.0,11.0,29.90,East,90,8.0,8.0,55,0.00,,,0.00,Rainwise IP-100,2013-02-03 20:09:00,
2013-02-03 15:14:00,22.0,11.0,29.90,East,90,5.0,9.0,56,0.00,,,0.00,Rainwise IP-100,2013-02-03 20:14:00,
2013-02-03 15:19:00,21.0,8.0,29.90,East,90,5.0,9.0,53,0.00,,,0.00,Rainwise IP-100,2013-02-03 20:19:00,
2013-02-03 15:24:00,21.0,8.0,29.90,East,90,6.0,8.0,55,0.00,,,0.00,Rainwise IP-100,2013-02-03 20:24:00,
2013-02-03 15:30:00,21.0,8.0,29.90,SE,135,6.0,11.0,56,0.00,,,0.00,Rainwise IP-100,2013-02-03 20:30:00,
2013-02-03 15:35:00,21.0,8.0,29.90,ESE,112,0.0,11.0,58,0.00,,,0.00,Rainwise IP-100,2013-02-03 20:35:00,
2013-02-03 15:40:00,21.0,8.0,29.89,East,90,4.0,6.0,55,0.00,,,0.00,Rainwise IP-100,2013-02-03 20:40:00,
2013-02-03 15:45:00,21.0,8.0,29.89,East,90,3.0,4.0,55,0.00,,,0.00,Rainwise IP-100,2013-02-03 20:45:00,
2013-02-03 15:49:00,21.0,8.0,29.89,East,90,1.0,6.0,54,0.00,,,0.00,Rainwise IP-100,2013-02-03 20:49:00,
2013-02-03 15:54:00,21.0,8.0,29.89,East,90,1.0,3.0,54,0.00,,,0.00,Rainwise IP-100,2013-02-03 20:54:00,
2013-02-03 15:59:00,21.0,8.0,29.88,SSW,202,2.0,6.0,52,0.00,,,0.00,Rainwise IP-100,2013-02-03 20:59:00,
2013-02-03 16:04:00,21.0,8.0,29.88,SSE,157,2.0,5.0,55,0.00,,,0.00,Rainwise IP-100,2013-02-03 21:04:00,
2013-02-03 16:09:00,21.0,8.0,29.88,SSE,157,1.0,5.0,55,0.00,,,0.00,Rainwise IP-100,2013-02-03 21:09:00,
2013-02-03 16:14:00,21.0,8.0,29.88,South,180,1.0,4.0,53,0.00,,,0.00,Rainwise IP-100,2013-02-03 21:14:00,
2013-02-03 16:19:00,21.0,8.0,29.87,SW,225,4.0,5.0,52,0.00,,,0.00,Rainwise IP-100,2013-02-03 21:19:00,
2013-02-03 16:24:00,20.0,8.0,29.87,South,180,5.0,5.0,52,0.00,,,0.00,Rainwise IP-100,2013-02-03 21:24:00,
2013-02-03 16:29:00,20.0,8.0,29.87,SSW,202,4.0,6.0,56,0.00,,,0.00,Rainwise IP-100,2013-02-03 21:29:00,
2013-02-03 16:34:00,20.0,8.0,29.87,South,180,1.0,6.0,56,0.00,,,0.00,Rainwise IP-100,2013-02-03 21:34:00,
2013-02-03 16:39:00,20.0,8.0,29.88,South,180,3.0,4.0,57,0.00,,,0.00,Rainwise IP-100,2013-02-03 21:39:00,
2013-02-03 16:44:00,20.0,8.0,29.88,SSW,202,1.0,5.0,59,0.00,,,0.00,Rainwise IP-100,2013-02-03 21:44:00,
2013-02-03 16:49:00,20.0,8.0,29.87,SSW,202,3.0,5.0,58,0.00,,,0.00,Rainwise IP-100,2013-02-03 21:49:00,
2013-02-03 16:54:00,19.0,8.0,29.87,SSW,202,3.0,5.0,59,0.00,,,0.00,Rainwise IP-100,2013-02-03 21:54:00,
2013-02-03 16:59:00,19.0,8.0,29.88,SSW,202,3.0,4.0,59,0.00,,,0.00,Rainwise IP-100,2013-02-03 21:59:00,
2013-02-03 17:04:00,19.0,8.0,29.88,South,180,4.0,5.0,58,0.00,,,0.00,Rainwise IP-100,2013-02-03 22:04:00,
2013-02-03 17:09:00,19.0,8.0,29.87,SSW,202,1.0,6.0,59,0.00,,,0.00,Rainwise IP-100,2013-02-03 22:09:00,
2013-02-03 17:14:00,19.0,8.0,29.87,SSW,202,3.0,5.0,58,0.00,,,0.00,Rainwise IP-100,2013-02-03 22:14:00,
2013-02-03 17:19:00,19.0,11.0,29.87,SSW,202,0.0,4.0,60,0.00,,,0.00,Rainwise IP-100,2013-02-03 22:19:00,
2013-02-03 17:24:00,18.0,8.0,29.87,SSE,157,3.0,5.0,63,0.00,,,0.00,Rainwise IP-100,2013-02-03 22:24:00,
2013-02-03 17:29:00,18.0,8.0,29.87,South,180,2.0,5.0,63,0.00,,,0.00,Rainwise IP-100,2013-02-03 22:29:00,
2013-02-03 17:34:00,18.0,8.0,29.87,South,180,3.0,4.0,63,0.00,,,0.00,Rainwise IP-100,2013-02-03 22:34:00,
2013-02-03 17:39:00,18.0,8.0,29.87,South,180,6.0,6.0,64,0.00,,,0.00,Rainwise IP-100,2013-02-03 22:39:00,
2013-02-03 17:44:00,18.0,8.0,29.87,South,180,3.0,6.0,63,0.00,,,0.00,Rainwise IP-100,2013-02-03 22:44:00,
2013-02-03 17:49:00,18.0,8.0,29.87,South,180,4.0,4.0,63,0.00,,,0.00,Rainwise IP-100,2013-02-03 22:49:00,
2013-02-03 17:54:00,18.0,8.0,29.87,South,180,3.0,5.0,63,0.00,,,0.00,Rainwise IP-100,2013-02-03 22:54:00,
2013-02-03 17:59:00,17.0,11.0,29.87,SW,225,3.0,5.0,67,0.00,,,0.00,Rainwise IP-100,2013-02-03 22:59:00,
2013-02-03 18:04:00,16.0,8.0,29.87,SW,225,1.0,5.0,69,0.00,,,0.00,Rainwise IP-100,2013-02-03 23:04:00,
2013-02-03 18:09:00,16.0,8.0,29.88,South,180,6.0,6.0,70,0.00,,,0.00,Rainwise IP-100,2013-02-03 23:09:00,
2013-02-03 18:15:00,16.0,8.0,29.88,SSE,157,5.0,7.0,70,0.00,,,0.00,Rainwise IP-100,2013-02-03 23:15:00,
2013-02-03 18:20:00,16.0,8.0,29.87,SSE,157,5.0,7.0,70,0.00,,,0.00,Rainwise IP-100,2013-02-03 23:20:00,
2013-02-03 18:25:00,16.0,8.0,29.87,SE,135,6.0,6.0,72,0.00,,,0.00,Rainwise IP-100,2013-02-03 23:25:00,
2013-02-03 18:30:00,15.0,11.0,29.87,SE,135,5.0,6.0,75,0.00,,,0.00,Rainwise IP-100,2013-02-03 23:30:00,
2013-02-03 18:35:00,16.0,11.0,29.87,SE,135,5.0,6.0,73,0.00,,,0.00,Rainwise IP-100,2013-02-03 23:35:00,
2013-02-03 18:40:00,15.0,11.0,29.87,SSE,157,6.0,6.0,75,0.00,,,0.00,Rainwise IP-100,2013-02-03 23:40:00,
2013-02-03 18:45:00,15.0,11.0,29.87,SSE,157,6.0,6.0,77,0.00,,,0.00,Rainwise IP-100,2013-02-03 23:45:00,
2013-02-03 18:50:00,14.0,8.0,29.87,South,180,6.0,7.0,79,0.00,,,0.00,Rainwise IP-100,2013-02-03 23:50:00,
2013-02-03 18:55:00,14.0,8.0,29.87,South,180,3.0,6.0,80,0.00,,,0.00,Rainwise IP-100,2013-02-03 23:55:00,
2013-02-03 19:00:00,14.0,8.0,29.88,South,180,1.0,5.0,80,0.00,,,0.00,Rainwise IP-100,2013-02-04 00:00:00,
2013-02-03 19:05:00,13.0,8.0,29.88,South,180,0.0,3.0,80,0.00,,,0.00,Rainwise IP-100,2013-02-04 00:05:00,
2013-02-03 19:10:00,13.0,8.0,29.88,South,180,0.0,2.0,81,0.00,,,0.00,Rainwise IP-100,2013-02-04 00:10:00,
2013-02-03 19:15:00,13.0,11.0,29.88,South,180,1.0,2.0,82,0.00,,,0.00,Rainwise IP-100,2013-02-04 00:15:00,
2013-02-03 19:20:00,13.0,8.0,29.87,South,180,3.0,3.0,81,0.00,,,0.00,Rainwise IP-100,2013-02-04 00:20:00,
2013-02-03 19:25:00,14.0,8.0,29.87,South,180,4.0,4.0,81,0.00,,,0.00,Rainwise IP-100,2013-02-04 00:25:00,
2013-02-03 19:30:00,14.0,8.0,29.86,South,180,5.0,6.0,81,0.00,,,0.00,Rainwise IP-100,2013-02-04 00:30:00,
2013-02-03 19:35:00,14.0,8.0,29.86,South,180,5.0,6.0,81,0.00,,,0.00,Rainwise IP-100,2013-02-04 00:35:00,
2013-02-03 19:40:00,14.0,8.0,29.86,South,180,6.0,7.0,80,0.00,,,0.00,Rainwise IP-100,2013-02-04 00:40:00,
2013-02-03 19:45:00,14.0,8.0,29.86,South,180,7.0,7.0,80,0.00,,,0.00,Rainwise IP-100,2013-02-04 00:45:00,
2013-02-03 19:50:00,14.0,8.0,29.87,South,180,7.0,7.0,80,0.00,,,0.00,Rainwise IP-100,2013-02-04 00:50:00,
2013-02-03 19:55:00,14.0,8.0,29.87,South,180,8.0,9.0,78,0.00,,,0.00,Rainwise IP-100,2013-02-04 00:55:00,
2013-02-03 20:00:00,14.0,8.0,29.87,SSE,157,7.0,9.0,81,0.00,,,0.00,Rainwise IP-100,2013-02-04 01:00:00,
2013-02-03 20:05:00,13.0,11.0,29.87,South,180,8.0,9.0,82,0.00,,,0.00,Rainwise IP-100,2013-02-04 01:05:00,
2013-02-03 20:10:00,14.0,11.0,29.87,South,180,7.0,9.0,82,0.00,,,0.00,Rainwise IP-100,2013-02-04 01:10:00,
2013-02-03 20:15:00,14.0,11.0,29.87,SSE,157,7.0,8.0,82,0.00,,,0.00,Rainwise IP-100,2013-02-04 01:15:00,
2013-02-03 20:20:00,14.0,11.0,29.87,SSE,157,6.0,7.0,83,0.00,,,0.00,Rainwise IP-100,2013-02-04 01:20:00,
2013-02-03 20:25:00,14.0,11.0,29.87,SSE,157,5.0,7.0,82,0.00,,,0.00,Rainwise IP-100,2013-02-04 01:25:00,
2013-02-03 20:30:00,14.0,11.0,29.87,South,180,6.0,6.0,82,0.00,,,0.00,Rainwise IP-100,2013-02-04 01:30:00,
2013-02-03 20:35:00,15.0,11.0,29.87,SSW,202,6.0,6.0,78,0.00,,,0.00,Rainwise IP-100,2013-02-04 01:35:00,
2013-02-03 20:40:00,16.0,11.0,29.86,SSW,202,6.0,6.0,76,0.00,,,0.00,Rainwise IP-100,2013-02-04 01:40:00,
2013-02-03 20:45:00,16.0,11.0,29.86,SSW,202,4.0,6.0,78,0.00,,,0.00,Rainwise IP-100,2013-02-04 01:45:00,
2013-02-03 20:50:00,15.0,11.0,29.87,SSW,202,2.0,4.0,82,0.00,,,0.00,Rainwise IP-100,2013-02-04 01:50:00,
2013-02-03 20:55:00,15.0,14.0,29.87,SSW,202,2.0,3.0,84,0.00,,,0.00,Rainwise IP-100,2013-02-04 01:55:00,
2013-02-03 21:00:00,14.0,11.0,29.87,SSW,202,0.0,4.0,84,0.00,,,0.00,Rainwise IP-100,2013-02-04 02:00:00,
2013-02-03 21:05:00,14.0,11.0,29.87,SW,225,4.0,4.0,86,0.00,,,0.00,Rainwise IP-100,2013-02-04 02:05:00,
2013-02-03 21:10:00,15.0,11.0,29.87,SSW,202,5.0,6.0,81,0.00,,,0.00,Rainwise IP-100,2013-02-04 02:10:00,
2013-02-03 21:15:00,15.0,11.0,29.87,South,180,4.0,6.0,81,0.00,,,0.00,Rainwise IP-100,2013-02-04 02:15:00,
2013-02-03 21:20:00,15.0,11.0,29.86,South,180,4.0,6.0,82,0.00,,,0.00,Rainwise IP-100,2013-02-04 02:20:00,
2013-02-03 21:25:00,15.0,14.0,29.86,South,180,3.0,5.0,85,0.00,,,0.00,Rainwise IP-100,2013-02-04 02:25:00,
2013-02-03 21:30:00,15.0,14.0,29.86,South,180,3.0,4.0,86,0.00,,,0.00,Rainwise IP-100,2013-02-04 02:30:00,
2013-02-03 21:35:00,15.0,14.0,29.86,South,180,0.0,5.0,86,0.00,,,0.00,Rainwise IP-100,2013-02-04 02:35:00,
2013-02-03 21:40:00,14.0,11.0,29.86,West,270,2.0,3.0,87,0.00,,,0.00,Rainwise IP-100,2013-02-04 02:40:00,
2013-02-03 21:45:00,14.0,11.0,29.86,West,270,0.0,3.0,86,0.00,,,0.00,Rainwise IP-100,2013-02-04 02:45:00,
2013-02-03 21:50:00,14.0,11.0,29.86,West,270,1.0,2.0,87,0.00,,,0.00,Rainwise IP-100,2013-02-04 02:50:00,
2013-02-03 21:55:00,14.0,11.0,29.86,WSW,247,3.0,4.0,89,0.00,,,0.00,Rainwise IP-100,2013-02-04 02:55:00,
2013-02-03 22:00:00,14.0,11.0,29.85,WSW,247,4.0,4.0,88,0.00,,,0.00,Rainwise IP-100,2013-02-04 03:00:00,
2013-02-03 22:05:00,15.0,14.0,29.85,WSW,247,1.0,6.0,90,0.00,,,0.00,Rainwise IP-100,2013-02-04 03:05:00,
2013-02-03 22:10:00,14.0,11.0,29.85,ESE,112,4.0,5.0,88,0.00,,,0.00,Rainwise IP-100,2013-02-04 03:10:00,
2013-02-03 22:15:00,14.0,11.0,29.85,ESE,112,0.0,4.0,90,0.00,,,0.00,Rainwise IP-100,2013-02-04 03:15:00,
2013-02-03 22:20:00,14.0,11.0,29.84,East,90,0.0,1.0,90,0.00,,,0.00,Rainwise IP-100,2013-02-04 03:20:00,
2013-02-03 22:25:00,14.0,11.0,29.84,East,90,0.0,0.0,90,0.00,,,0.00,Rainwise IP-100,2013-02-04 03:25:00,
2013-02-03 22:30:00,14.0,11.0,29.84,East,90,0.0,0.0,90,0.00,,,0.00,Rainwise IP-100,2013-02-04 03:30:00,
2013-02-03 22:35:00,13.0,11.0,29.84,East,90,1.0,0.0,91,0.00,,,0.00,Rainwise IP-100,2013-02-04 03:35:00,
2013-02-03 22:40:00,14.0,11.0,29.84,East,90,2.0,3.0,91,0.00,,,0.00,Rainwise IP-100,2013-02-04 03:40:00,
2013-02-03 22:45:00,14.0,11.0,29.84,East,90,0.0,3.0,90,0.00,,,0.00,Rainwise IP-100,2013-02-04 03:45:00,
2013-02-03 22:50:00,13.0,11.0,29.84,East,90,2.0,3.0,92,0.00,,,0.00,Rainwise IP-100,2013-02-04 03:50:00,
2013-02-03 22:55:00,13.0,11.0,29.84,ENE,67,3.0,4.0,92,0.00,,,0.00,Rainwise IP-100,2013-02-04 03:55:00,
2013-02-03 23:00:00,13.0,11.0,29.84,ENE,67,2.0,4.0,91,0.00,,,0.00,Rainwise IP-100,2013-02-04 04:00:00,
2013-02-03 23:05:00,13.0,11.0,29.84,ENE,67,0.0,2.0,91,0.00,,,0.00,Rainwise IP-100,2013-02-04 04:05:00,
2013-02-03 23:10:00,13.0,11.0,29.84,ENE,67,0.0,1.0,91,0.00,,,0.00,Rainwise IP-100,2013-02-04 04:10:00,
2013-02-03 23:15:00,13.0,11.0,29.84,ENE,67,0.0,1.0,92,0.00,,,0.00,Rainwise IP-100,2013-02-04 04:15:00,
2013-02-03 23:20:00,13.0,11.0,29.84,ENE,67,1.0,1.0,92,0.00,,,0.00,Rainwise IP-100,2013-02-04 04:20:00,
2013-02-03 23:25:00,13.0,11.0,29.84,ENE,67,0.0,1.0,92,0.00,,,0.00,Rainwise IP-100,2013-02-04 04:25:00,
2013-02-03 23:30:00,13.0,11.0,29.84,ENE,67,0.0,1.0,92,0.00,,,0.00,Rainwise IP-100,2013-02-04 04:30:00,
2013-02-03 23:35:00,13.0,11.0,29.84,East,90,6.0,7.0,91,0.00,,,0.00,Rainwise IP-100,2013-02-04 04:35:00,
2013-02-03 23:40:00,14.0,11.0,29.83,WSW,247,3.0,6.0,88,0.00,,,0.00,Rainwise IP-100,2013-02-04 04:40:00,
2013-02-03 23:45:00,14.0,11.0,29.83,ENE,67,5.0,5.0,86,0.00,,,0.00,Rainwise IP-100,2013-02-04 04:45:00,
2013-02-03 23:50:00,15.0,14.0,29.82,ESE,112,4.0,6.0,86,0.00,,,0.00,Rainwise IP-100,2013-02-04 04:50:00,
2013-02-03 23:55:00,15.0,14.0,29.82,West,270,6.0,7.0,85,0.00,,,0.00,Rainwise IP-100,2013-02-04 04:55:00,